{"data":{"norad_id":48395,"epoch":"2026-05-24T20:08:23.404992Z","epoch_age_seconds":88677,"freshness":"FRESH","line1":"1 48395U 21038AU  26144.83915978  .00001247  00000+0  51928-4 0  9992","line2":"2 48395  53.1603 340.7373 0001061  82.6129 277.4993 15.31714520280293","mean_motion":15.3171452,"eccentricity":0.0001061,"inclination_deg":53.1603,"raan_deg":340.7373,"arg_perigee_deg":82.6129,"mean_anomaly_deg":277.4993,"bstar":5.1928e-5,"rev_number":28029,"period_min":94.012296756187,"perigee_km":469.97005094627,"apogee_km":471.42337346,"semimajor_km":6848.8337122031,"source":"CELESTRAK","updated_at":"2026-05-25T13:38:16.710444Z"}}